Location: Wellington
(41.3000°S, 174.7830°E)
Time: 00:08:41
(UTC+13:00)

Cosmos 1340 Rocket - Pass Details

Date: 24 January 2019
Orbit: 529 x 560 km, 81.2° (Epoch: 19 February)

Event Time Altitude Azimuth Distance (km) Brightness Sun altitude
Exits shadow 23:51:22 57° 173° (S) 646 3.3 -25.1°
Drops below altitude 10° 23:54:37 10° 171° (S) 1,828 6.2 -25.3°
Sets 23:56:48 0° 170° (S) 2,734 7.2 -25.5°
